Home > Weather > Marseille > Past weeks

Flag for France Past Weather in Marseille, Provence-Alpes-Côte d'Azur, France — Yesterday and Last 2 Weeks

Now
70 °F

Clear.


Feels Like: 70 °F
Forecast: 66 / 85 °F
Wind: 1 mph from North

Location: Marseille / Marignane

Current Time: Jun 30, 2016 at 3:48:04 AM

Latest Report: Jun 30, 2016 at 3:00 AM


Visibility: 10 mi

Pressure: 29.95 "Hg

Humidity: 83%

Dew Point: 64 °F

Location of MarseilleLocation

Past Weather in Marseille — Graph

°F

Marseille Temperature Yesterday

Maximum temperature yesterday: 86 °F (at 1:30 PM)
Minimum temperature yesterday: 64 °F (at 3:00 AM)
Average temperature yesterday: 74 °F

High & Low Weather Summary for the Past Weeks

 TemperatureHumidityPressure
High91 °F (Jun 25, 4:30 PM)88% (Jun 16, 1:30 PM)30.18 "Hg (Jun 16, 1:30 PM)
Low59 °F (Jun 17, 5:30 AM)25% (Jun 23, 12:30 PM)29.56 "Hg (Jun 15, 8:00 PM)
Average73 °F55%29.99 "Hg
* Reported Jun 15 2:00 AM — Jun 30 2:30 AM, Marseille, Weather by CustomWeather, © 2016

Note: Actual official high and low records may vary slightly from our data, if they occured in-between our weather recording intervals... More about our weather records

Advertising

Marseille Weather History for the Previous 24 Hours

Scroll right to see more
 ConditionsComfort  
Time TempWeatherWind HumidityBarometerVisibility
2:30 AM
Thu, Jun 30
70 °FClear.2 mph83%29.98 "Hg10 mi
2:00 AM70 °FClear.No wind83%29.98 "Hg10 mi
1:30 AM70 °FClear.9 mph83%29.98 "Hg10 mi
1:00 AM72 °FClear.5 mph78%29.98 "Hg10 mi
12:30 AM72 °FClear.3 mph78%29.98 "Hg10 mi
12:00 AM72 °FClear.No wind73%29.98 "Hg10 mi
11:30 PM
Wed, Jun 29
72 °FClear.1 mph78%29.98 "Hg10 mi
11:00 PM72 °FClear.2 mph78%29.98 "Hg10 mi
10:30 PM72 °FClear.2 mph78%29.95 "Hg10 mi
10:00 PM72 °FSunny.8 mph78%29.98 "Hg10 mi
9:30 PM72 °FSunny.7 mph78%29.95 "Hg10 mi
9:00 PM73 °FSunny.12 mph74%29.95 "Hg10 mi
8:30 PM75 °FSunny.10 mph69%29.95 "Hg10 mi
8:00 PM79 °FSunny.12 mph58%29.92 "Hg10 mi
7:30 PM79 °FSunny.9 mph58%29.92 "Hg10 mi
7:00 PM82 °FPassing clouds.9 mph48%29.92 "HgN/A
6:30 PM81 °FPassing clouds.7 mph54%29.92 "HgN/A
6:00 PM79 °FSunny.12 mph61%29.95 "Hg10 mi
5:30 PM81 °FSunny.13 mph62%29.95 "Hg10 mi
5:00 PM81 °FSunny.12 mph58%29.95 "Hg10 mi
4:30 PM81 °FSunny.15 mph58%29.95 "Hg10 mi
4:00 PM82 °FSunny.15 mph55%29.95 "Hg10 mi
3:30 PM82 °FPassing clouds.12 mph51%29.95 "HgN/A
3:00 PM84 °FSunny.15 mph45%29.95 "Hg10 mi
2:30 PM86 °FSunny.14 mph40%29.95 "Hg10 mi
2:00 PM84 °FSunny.13 mph43%29.95 "Hg10 mi
1:30 PM86 °FPassing clouds.12 mph38%29.98 "HgN/A
1:00 PM82 °FPassing clouds.5 mph51%29.98 "HgN/A
12:30 PM81 °FSunny.6 mph58%29.98 "Hg10 mi
12:00 PM79 °FSunny.6 mph61%29.98 "Hg10 mi
11:30 AM77 °FSunny.6 mph65%29.98 "Hg10 mi
11:00 AM75 °FSunny.5 mph65%29.98 "Hg10 mi
10:30 AM75 °FSunny.3 mph61%29.98 "Hg10 mi
10:00 AM75 °FSunny.5 mph65%29.98 "Hg10 mi
9:30 AM75 °FSunny.2 mph61%29.98 "Hg10 mi
9:00 AM73 °FSunny.2 mph65%30.01 "Hg10 mi
8:30 AM72 °FPassing clouds.3 mph73%30.01 "HgN/A
8:00 AM72 °FSunny.2 mph69%29.98 "Hg10 mi
7:30 AM70 °FSunny.No wind64%30.01 "Hg10 mi
7:00 AM68 °FClear.No wind69%29.98 "Hg10 mi
6:30 AM68 °FClear.2 mph69%29.98 "Hg10 mi
6:00 AM68 °FClear.2 mph78%29.98 "Hg10 mi
5:30 AM64 °FClear.2 mph73%29.98 "Hg10 mi
5:00 AM66 °FClear.3 mph73%29.98 "Hg10 mi
4:30 AM64 °FClear.7 mph78%29.98 "Hg10 mi
4:00 AM66 °FClear.6 mph83%29.98 "Hg10 mi
3:30 AM64 °FClear.7 mph78%29.98 "Hg10 mi
3:00 AM64 °FClear.7 mph83%30.01 "Hg10 mi
Weather by CustomWeather, © 2016

See weather overviewHow to use our weather pages